Overview Statistics Trail Chart Weather Telemetry Raw packets
 

This is the latest recevied weather packets stored in our database for station/object HP3ICC-14. If no packets are shown the sender has not sent any weather packets the latest 10 day(s).

<< 47 48 49 50 51 >>
Time Temp. Humidity Pressure Rain* Wind** Luminosity Snow
1787873343 25.56° C 80% 1006 hPa 0.25 mm - - -
1787872203 26.11° C 80% 1006 hPa 0 mm - - -
1787872142 26.11° C 80% 1006 hPa 0 mm - - -
1787870942 26.67° C 80% 1006 hPa 0.25 mm - - -
1787869742 25° C 75% 1005 hPa 0.51 mm - - -
1787868602 25.56° C 75% 1005 hPa 0 mm - - -
1787868542 25.56° C 75% 1005 hPa 0 mm - - -
1787867401 26.11° C 75% 1005 hPa 0.51 mm - - -
1787866201 26.67° C 75% 1005 hPa 0 mm - - -
1787866141 26.67° C 75% 1005 hPa 0 mm - - -
1787865001 27.22° C 75% 1005 hPa 0 mm - - -
1787864941 27.22° C 75% 1005 hPa 0 mm - - -
1787863800 27.78° C 75% 1005 hPa 0 mm - - -
1787863740 27.78° C 75% 1005 hPa 0 mm - - -
1787862600 28.33° C 75% 1006 hPa 0 mm - - -
1787862540 28.33° C 75% 1006 hPa 0 mm - - -
1787861400 28.89° C 75% 1006 hPa 0 mm - - -
1787861340 28.89° C 75% 1006 hPa 0 mm - - -
1787860199 29.44° C 75% 1006 hPa 0 mm - - -
1787860139 29.44° C 75% 1006 hPa 0 mm - - -
1787858999 26.67° C 78% 1007 hPa 0 mm - - -
1787858939 26.67° C 78% 1007 hPa 0 mm - - -
1787857738 27.22° C 78% 1007 hPa 0 mm - - -
1787856598 27.78° C 78% 1007 hPa 0 mm - - -
1787856538 27.78° C 78% 1007 hPa 0 mm - - -

* Rain latest hour (hover to see other rain measurements)
** Current wind speed in m/s (hover to see current wind gust speed)